GEFSGL_prec_meanprecacc_252.txt.gz
Total_Precipitation_Accumulation
1.32 1.37 1.40 1.41 1.42 1.42 1.39 1.32 1.39 1.46 1.48 1.47 1.51 1.59 1.63 1.67 1.77 1.88 1.84 1.95 1.97 1.96 1.93 2.05 2.17 2.35 2.32 2.15 2.28 2.39 2.52 2.70 2.42 2.17 2.05 1.83 1.81 1.69 1.65 1.58 1.44 1.40 1.26
1.30 1.41 1.59 1.56 1.55 1.49 1.37 1.33 1.38 1.39 1.41 1.42 1.51 1.58 1.57 1.64 1.80 1.89 1.86 1.93 1.94 1.89 1.93 2.08 2.08 2.16 2.25 2.16 2.13 2.12 2.29 2.51 2.47 2.31 2.32 2.24 2.08 1.95 1.92 1.83 1.50 1.36 1.35
1.36 1.44 1.56 1.58 1.54 1.45 1.36 1.33 1.32 1.33 1.38 1.42 1.42 1.46 1.50 1.57 1.71 1.76 1.84 1.90 1.95 1.99 1.96 1.92 1.86 1.99 2.14 2.30 2.31 2.22 2.23 2.36 2.52 2.42 2.37 2.45 2.24 2.07 2.19 2.03 1.82 1.83 1.45
1.20 1.25 1.33 1.29 1.28 1.29 1.30 1.27 1.24 1.31 1.37 1.44 1.45 1.50 1.52 1.56 1.60 1.65 1.69 1.63 1.64 1.65 1.67 1.70 1.71 1.76 1.91 2.30 2.34 2.39 2.39 2.38 2.52 2.52 2.50 2.55 2.59 2.39 2.42 2.22 2.09 1.96 1.71
1.14 1.19 1.27 1.33 1.31 1.31 1.26 1.20 1.28 1.34 1.31 1.42 1.49 1.46 1.48 1.49 1.38 1.45 1.43 1.34 1.42 1.37 1.34 1.36 1.36 1.44 1.49 1.66 1.74 2.02 2.27 2.36 2.41 2.49 2.50 2.58 2.61 2.73 2.47 2.30 2.26 2.19 2.04
0.92 0.99 1.21 1.35 1.36 1.32 1.22 1.23 1.30 1.36 1.41 1.47 1.50 1.44 1.41 1.26 1.33 1.37 1.35 1.30 1.31 1.27 1.21 1.19 1.17 1.23 1.28 1.30 1.29 1.46 1.73 2.00 2.28 2.49 2.54 2.57 2.62 2.72 2.70 2.54 2.42 2.28 2.18
0.85 0.91 1.00 1.12 1.19 1.14 1.08 1.10 1.15 1.24 1.37 1.42 1.46 1.52 1.49 1.48 1.48 1.44 1.37 1.24 1.21 1.20 1.19 1.21 1.04 1.00 1.09 1.05 1.17 1.21 1.28 1.45 1.62 1.99 2.24 2.27 2.39 2.50 2.71 2.65 2.61 2.54 2.41
0.98 1.01 0.99 1.04 1.14 1.17 1.13 1.13 1.23 1.31 1.35 1.41 1.42 1.48 1.53 1.47 1.50 1.40 1.30 1.13 1.15 1.21 1.19 1.20 1.18 1.15 1.15 1.18 1.23 1.17 1.10 1.13 1.23 1.32 1.42 1.62 1.87 2.20 2.48 2.60 2.73 2.76 2.75
1.03 1.07 1.08 1.11 1.17 1.22 1.21 1.29 1.42 1.51 1.43 1.39 1.45 1.53 1.58 1.60 1.58 1.39 1.27 1.13 1.17 1.22 1.16 1.17 1.23 1.17 1.19 1.11 1.13 1.16 1.11 1.08 1.11 1.20 1.16 1.28 1.42 1.63 1.93 2.13 2.31 2.52 2.76
1.17 1.14 1.18 1.28 1.34 1.38 1.50 1.70 1.79 1.80 1.71 1.65 1.56 1.56 1.58 1.65 1.64 1.41 1.30 1.19 1.27 1.35 1.39 1.38 1.35 1.24 1.18 1.11 1.05 1.12 1.12 1.08 1.13 1.13 1.09 1.06 1.08 1.20 1.43 1.58 1.75 2.01 2.26
1.48 1.48 1.46 1.55 1.65 1.71 1.92 2.06 2.09 2.07 2.16 2.13 1.96 1.88 1.85 1.83 1.77 1.58 1.56 1.47 1.56 1.67 1.61 1.50 1.39 1.29 1.08 1.01 0.99 1.00 1.02 1.06 1.16 1.22 1.21 1.16 1.14 1.12 1.18 1.33 1.53 1.64 1.76
1.56 1.64 1.71 1.87 1.81 1.88 2.15 2.20 2.30 2.44 2.44 2.35 2.34 2.25 2.15 2.11 1.91 1.73 1.64 1.57 1.52 1.58 1.60 1.48 1.36 1.23 1.01 0.91 0.86 0.83 0.84 0.82 0.87 0.99 1.05 1.09 1.11 1.05 1.08 1.22 1.43 1.59 1.58
1.75 1.83 1.96 2.12 2.25 2.30 2.46 2.56 2.55 2.55 2.55 2.51 2.52 2.46 2.38 2.30 2.11 1.79 1.61 1.53 1.44 1.37 1.38 1.36 1.27 1.13 1.00 0.87 0.86 0.82 0.75 0.74 0.82 0.90 0.94 1.02 1.06 1.04 1.06 1.18 1.34 1.53 1.56
1.86 1.91 2.04 2.19 2.27 2.36 2.53 2.59 2.62 2.61 2.62 2.67 2.66 2.53 2.41 2.32 2.16 1.91 1.66 1.50 1.37 1.25 1.23 1.29 1.24 1.12 0.99 0.94 0.94 0.86 0.78 0.85 0.94 0.92 0.95 1.02 1.12 1.15 1.17 1.18 1.30 1.41 1.50
1.96 2.04 2.18 2.32 2.44 2.51 2.44 2.49 2.56 2.59 2.53 2.44 2.42 2.39 2.38 2.28 2.14 1.94 1.74 1.60 1.51 1.44 1.36 1.34 1.34 1.24 1.14 1.11 1.13 1.13 1.12 1.08 1.02 1.01 1.06 1.12 1.19 1.24 1.24 1.26 1.31 1.37 1.35
2.07 2.12 2.22 2.30 2.43 2.44 2.42 2.32 2.23 2.15 2.12 2.00 2.01 2.04 2.04 2.02 1.91 1.69 1.55 1.49 1.48 1.53 1.44 1.42 1.49 1.49 1.43 1.35 1.31 1.30 1.27 1.20 1.17 1.19 1.23 1.24 1.24 1.24 1.23 1.31 1.40 1.42 1.40
2.12 2.14 2.17 2.17 2.25 2.35 2.36 2.29 2.17 2.05 1.93 1.81 1.76 1.71 1.64 1.64 1.61 1.56 1.55 1.54 1.50 1.45 1.38 1.45 1.56 1.62 1.63 1.60 1.51 1.41 1.36 1.28 1.23 1.23 1.23 1.25 1.24 1.28 1.33 1.36 1.43 1.48 1.47
2.05 2.10 2.05 2.03 2.11 2.24 2.26 2.27 2.26 2.16 2.08 1.97 1.86 1.76 1.58 1.47 1.45 1.49 1.54 1.52 1.46 1.40 1.41 1.56 1.65 1.67 1.72 1.71 1.60 1.52 1.44 1.36 1.32 1.33 1.36 1.40 1.40 1.41 1.41 1.38 1.40 1.43 1.48
2.01 2.01 2.03 2.05 2.09 2.15 2.21 2.25 2.26 2.16 2.12 2.01 1.81 1.65 1.55 1.43 1.39 1.42 1.39 1.34 1.43 1.50 1.55 1.68 1.73 1.72 1.64 1.57 1.53 1.50 1.43 1.39 1.37 1.38 1.38 1.38 1.37 1.39 1.43 1.46 1.48 1.55 1.52
1.85 1.98 2.04 1.98 1.97 2.03 2.13 2.22 2.22 2.19 2.19 2.14 1.99 1.70 1.50 1.35 1.28 1.34 1.29 1.28 1.34 1.38 1.41 1.50 1.60 1.65 1.62 1.56 1.50 1.43 1.38 1.35 1.33 1.33 1.33 1.33 1.37 1.39 1.36 1.40 1.44 1.40 1.39
1.79 1.80 1.90 1.88 1.86 1.88 1.94 1.98 2.03 1.99 1.92 1.89 1.84 1.69 1.54 1.38 1.38 1.35 1.33 1.31 1.29 1.26 1.32 1.43 1.49 1.48 1.43 1.39 1.39 1.35 1.33 1.33 1.31 1.30 1.35 1.37 1.38 1.36 1.28 1.26 1.27 1.27 1.26
1.89 1.86 1.75 1.73 1.74 1.80 1.81 1.80 1.82 1.77 1.69 1.65 1.60 1.51 1.46 1.35 1.36 1.35 1.31 1.29 1.22 1.17 1.17 1.22 1.27 1.30 1.26 1.23 1.26 1.29 1.29 1.27 1.28 1.27 1.26 1.27 1.29 1.26 1.22 1.22 1.23 1.28 1.34
1.83 1.78 1.66 1.56 1.50 1.58 1.58 1.58 1.59 1.55 1.51 1.49 1.45 1.34 1.27 1.28 1.26 1.20 1.16 1.11 1.08 1.07 1.08 1.11 1.14 1.15 1.12 1.09 1.10 1.14 1.15 1.12 1.14 1.18 1.21 1.23 1.23 1.18 1.18 1.21 1.20 1.26 1.31
1.66 1.64 1.56 1.44 1.30 1.27 1.36 1.47 1.48 1.46 1.45 1.37 1.26 1.18 1.14 1.14 1.09 0.99 0.93 0.92 0.91 0.88 0.88 0.93 0.90 0.87 0.89 0.93 0.95 0.95 0.94 0.92 0.92 0.97 0.99 1.06 1.11 1.08 1.08 1.09 1.06 1.11 1.24
1.40 1.40 1.42 1.39 1.24 1.14 1.23 1.33 1.33 1.27 1.23 1.15 1.05 1.02 0.99 0.95 0.92 0.88 0.84 0.82 0.79 0.78 0.71 0.71 0.74 0.72 0.74 0.75 0.76 0.76 0.74 0.70 0.68 0.71 0.76 0.83 0.92 0.97 0.99 1.02 1.06 1.15 1.24
1.16 1.18 1.21 1.22 1.14 1.06 1.10 1.17 1.17 1.10 1.08 1.00 0.89 0.87 0.87 0.87 0.87 0.86 0.82 0.76 0.73 0.68 0.64 0.64 0.66 0.66 0.64 0.64 0.64 0.60 0.58 0.56 0.56 0.61 0.61 0.69 0.82 0.92 0.95 0.98 1.00 1.05 1.12

GEFSGL_prec_meanprecacc_258.txt.gz
Total_Precipitation_Accumulation
1.33 1.39 1.42 1.43 1.44 1.44 1.41 1.34 1.41 1.48 1.51 1.49 1.54 1.63 1.67 1.71 1.83 1.96 1.95 2.06 2.05 2.02 2.00 2.12 2.24 2.44 2.40 2.23 2.37 2.50 2.62 2.81 2.51 2.25 2.14 1.91 1.88 1.74 1.70 1.64 1.49 1.45 1.29
1.31 1.43 1.62 1.59 1.57 1.51 1.39 1.34 1.40 1.42 1.43 1.45 1.53 1.61 1.60 1.68 1.85 1.94 1.92 2.05 2.06 1.97 2.01 2.16 2.15 2.24 2.33 2.23 2.21 2.22 2.40 2.65 2.57 2.38 2.40 2.31 2.14 2.00 1.98 1.89 1.56 1.41 1.38
1.40 1.45 1.59 1.61 1.57 1.47 1.38 1.34 1.34 1.35 1.41 1.44 1.44 1.47 1.52 1.61 1.75 1.80 1.89 1.97 2.05 2.07 2.04 1.97 1.91 2.06 2.21 2.37 2.38 2.30 2.32 2.45 2.62 2.50 2.45 2.53 2.31 2.12 2.24 2.09 1.88 1.88 1.48
1.21 1.27 1.34 1.30 1.29 1.31 1.32 1.28 1.26 1.33 1.39 1.46 1.47 1.53 1.56 1.61 1.65 1.72 1.78 1.71 1.72 1.72 1.73 1.75 1.76 1.82 1.98 2.37 2.39 2.44 2.44 2.45 2.61 2.62 2.60 2.63 2.66 2.46 2.47 2.26 2.13 2.01 1.75
1.15 1.19 1.27 1.33 1.32 1.33 1.28 1.22 1.30 1.37 1.34 1.46 1.53 1.51 1.54 1.55 1.46 1.53 1.52 1.44 1.51 1.45 1.40 1.40 1.40 1.48 1.53 1.70 1.76 2.06 2.31 2.42 2.49 2.60 2.61 2.66 2.68 2.80 2.53 2.35 2.30 2.22 2.07
0.92 1.00 1.22 1.37 1.38 1.35 1.25 1.25 1.33 1.40 1.46 1.52 1.55 1.50 1.48 1.33 1.46 1.48 1.44 1.39 1.38 1.33 1.25 1.23 1.19 1.25 1.31 1.32 1.31 1.48 1.76 2.04 2.34 2.56 2.62 2.65 2.72 2.80 2.77 2.59 2.47 2.31 2.20
0.87 0.93 1.02 1.15 1.22 1.17 1.11 1.13 1.19 1.28 1.41 1.47 1.53 1.61 1.61 1.62 1.61 1.51 1.43 1.29 1.26 1.25 1.22 1.23 1.06 1.01 1.12 1.07 1.19 1.24 1.31 1.48 1.64 2.02 2.28 2.33 2.46 2.56 2.76 2.69 2.65 2.57 2.43
1.00 1.04 1.03 1.08 1.17 1.20 1.16 1.16 1.28 1.36 1.40 1.46 1.49 1.57 1.63 1.57 1.57 1.43 1.32 1.15 1.18 1.25 1.23 1.23 1.20 1.17 1.18 1.21 1.26 1.20 1.13 1.16 1.25 1.33 1.44 1.64 1.90 2.24 2.51 2.64 2.75 2.78 2.76
1.05 1.11 1.13 1.17 1.24 1.28 1.26 1.35 1.47 1.56 1.48 1.45 1.51 1.58 1.65 1.68 1.64 1.42 1.29 1.15 1.19 1.25 1.20 1.20 1.26 1.20 1.23 1.14 1.16 1.18 1.14 1.09 1.13 1.22 1.18 1.30 1.44 1.66 1.96 2.16 2.32 2.54 2.78
1.18 1.18 1.24 1.35 1.41 1.46 1.59 1.79 1.85 1.84 1.77 1.71 1.62 1.62 1.64 1.70 1.68 1.44 1.33 1.22 1.30 1.38 1.43 1.42 1.39 1.28 1.22 1.15 1.08 1.14 1.14 1.11 1.17 1.17 1.11 1.08 1.10 1.22 1.45 1.60 1.77 2.03 2.28
1.49 1.49 1.48 1.59 1.69 1.77 1.99 2.15 2.16 2.12 2.22 2.17 2.01 1.91 1.89 1.86 1.81 1.63 1.61 1.50 1.60 1.71 1.65 1.55 1.45 1.34 1.13 1.05 1.02 1.03 1.05 1.10 1.20 1.26 1.24 1.19 1.16 1.14 1.20 1.34 1.54 1.66 1.78
1.57 1.64 1.71 1.87 1.83 1.90 2.16 2.23 2.33 2.47 2.48 2.38 2.37 2.28 2.18 2.15 1.95 1.78 1.69 1.61 1.56 1.61 1.64 1.52 1.40 1.27 1.05 0.94 0.88 0.86 0.88 0.85 0.89 1.01 1.06 1.10 1.12 1.07 1.09 1.23 1.44 1.61 1.60
1.75 1.83 1.96 2.13 2.26 2.32 2.48 2.58 2.57 2.57 2.57 2.53 2.54 2.48 2.40 2.34 2.15 1.83 1.65 1.57 1.47 1.40 1.41 1.40 1.30 1.17 1.03 0.90 0.89 0.85 0.78 0.76 0.84 0.91 0.95 1.03 1.07 1.05 1.07 1.20 1.36 1.56 1.58
1.87 1.92 2.05 2.20 2.28 2.37 2.55 2.60 2.63 2.63 2.63 2.69 2.68 2.54 2.43 2.34 2.18 1.93 1.68 1.53 1.41 1.28 1.26 1.32 1.28 1.16 1.03 0.99 0.98 0.90 0.82 0.89 0.98 0.95 0.97 1.04 1.13 1.17 1.18 1.19 1.31 1.42 1.52
1.98 2.04 2.18 2.33 2.45 2.53 2.46 2.51 2.58 2.61 2.54 2.46 2.44 2.40 2.39 2.30 2.16 1.96 1.75 1.62 1.53 1.47 1.39 1.36 1.36 1.26 1.17 1.13 1.16 1.16 1.15 1.11 1.05 1.05 1.10 1.16 1.22 1.26 1.25 1.28 1.33 1.38 1.37
2.08 2.13 2.22 2.30 2.44 2.45 2.44 2.35 2.26 2.17 2.15 2.04 2.04 2.06 2.05 2.03 1.93 1.70 1.57 1.50 1.49 1.54 1.46 1.44 1.51 1.52 1.46 1.39 1.36 1.35 1.33 1.26 1.23 1.24 1.27 1.27 1.26 1.26 1.25 1.32 1.43 1.44 1.42
2.14 2.16 2.19 2.18 2.27 2.37 2.38 2.32 2.21 2.09 1.97 1.86 1.80 1.73 1.66 1.66 1.62 1.57 1.57 1.56 1.52 1.47 1.39 1.46 1.59 1.66 1.68 1.65 1.57 1.47 1.41 1.34 1.28 1.27 1.26 1.27 1.26 1.30 1.34 1.38 1.44 1.49 1.49
2.07 2.12 2.06 2.05 2.13 2.26 2.28 2.29 2.28 2.19 2.11 1.99 1.88 1.78 1.60 1.48 1.46 1.50 1.57 1.54 1.48 1.41 1.42 1.57 1.68 1.71 1.76 1.76 1.64 1.56 1.49 1.40 1.35 1.35 1.38 1.43 1.43 1.43 1.43 1.40 1.41 1.44 1.49
2.02 2.02 2.04 2.06 2.10 2.17 2.22 2.27 2.28 2.19 2.14 2.03 1.82 1.67 1.57 1.46 1.41 1.44 1.41 1.35 1.44 1.51 1.56 1.69 1.75 1.73 1.66 1.60 1.56 1.53 1.46 1.42 1.39 1.40 1.40 1.40 1.40 1.42 1.45 1.47 1.49 1.56 1.53
1.86 2.00 2.05 1.99 1.98 2.04 2.15 2.24 2.24 2.21 2.20 2.15 2.00 1.72 1.52 1.37 1.30 1.35 1.31 1.29 1.35 1.39 1.42 1.52 1.62 1.66 1.64 1.58 1.53 1.45 1.40 1.37 1.35 1.35 1.34 1.35 1.39 1.41 1.37 1.41 1.45 1.42 1.41
1.81 1.81 1.92 1.89 1.87 1.89 1.95 1.99 2.04 2.01 1.93 1.89 1.85 1.71 1.57 1.41 1.40 1.37 1.35 1.35 1.33 1.30 1.35 1.46 1.52 1.50 1.44 1.41 1.41 1.37 1.34 1.35 1.33 1.32 1.36 1.38 1.40 1.38 1.30 1.28 1.29 1.29 1.29
1.91 1.87 1.77 1.75 1.76 1.82 1.83 1.82 1.83 1.78 1.70 1.66 1.61 1.52 1.48 1.37 1.38 1.38 1.35 1.33 1.27 1.21 1.20 1.24 1.29 1.31 1.28 1.24 1.28 1.30 1.30 1.28 1.29 1.28 1.27 1.28 1.30 1.28 1.25 1.25 1.26 1.31 1.37
1.85 1.81 1.69 1.58 1.52 1.60 1.60 1.59 1.59 1.55 1.52 1.50 1.46 1.36 1.29 1.30 1.28 1.22 1.18 1.14 1.10 1.08 1.09 1.13 1.16 1.16 1.13 1.10 1.11 1.15 1.16 1.13 1.15 1.19 1.23 1.24 1.24 1.19 1.19 1.23 1.23 1.29 1.34
1.70 1.68 1.59 1.47 1.33 1.29 1.38 1.48 1.49 1.47 1.46 1.38 1.27 1.19 1.16 1.16 1.11 1.00 0.95 0.93 0.92 0.89 0.89 0.93 0.91 0.87 0.89 0.93 0.96 0.96 0.95 0.93 0.92 0.97 1.00 1.07 1.12 1.09 1.09 1.11 1.08 1.13 1.27
1.43 1.43 1.44 1.40 1.25 1.16 1.24 1.34 1.34 1.28 1.24 1.16 1.06 1.04 1.01 0.96 0.93 0.89 0.85 0.83 0.80 0.79 0.73 0.72 0.74 0.73 0.75 0.76 0.76 0.76 0.74 0.70 0.68 0.71 0.77 0.85 0.94 0.99 1.00 1.03 1.08 1.17 1.27
1.19 1.20 1.23 1.23 1.15 1.07 1.11 1.19 1.18 1.11 1.09 1.00 0.89 0.88 0.89 0.88 0.88 0.87 0.83 0.78 0.75 0.70 0.65 0.65 0.68 0.67 0.64 0.65 0.64 0.60 0.58 0.56 0.57 0.61 0.61 0.69 0.83 0.94 0.96 1.00 1.01 1.07 1.14

GEFSGL_prec_meanprecacc_264.txt.gz
Total_Precipitation_Accumulation
1.36 1.42 1.47 1.48 1.50 1.47 1.43 1.36 1.43 1.49 1.52 1.51 1.56 1.64 1.69 1.73 1.85 1.98 1.97 2.08 2.08 2.05 2.04 2.16 2.28 2.48 2.43 2.27 2.42 2.56 2.72 2.92 2.60 2.34 2.21 1.99 2.01 1.91 1.83 1.75 1.59 1.56 1.40
1.33 1.45 1.64 1.61 1.60 1.53 1.41 1.36 1.42 1.43 1.45 1.48 1.56 1.63 1.61 1.71 1.88 1.97 1.96 2.09 2.10 2.02 2.06 2.20 2.19 2.28 2.36 2.26 2.26 2.28 2.48 2.72 2.64 2.46 2.49 2.40 2.24 2.15 2.12 1.99 1.64 1.48 1.45
1.42 1.48 1.61 1.63 1.59 1.49 1.39 1.36 1.37 1.38 1.43 1.47 1.46 1.50 1.55 1.65 1.80 1.86 1.95 2.04 2.11 2.12 2.09 2.01 1.95 2.10 2.24 2.40 2.41 2.34 2.38 2.51 2.69 2.58 2.52 2.61 2.39 2.17 2.29 2.14 1.93 1.91 1.51
1.23 1.28 1.37 1.32 1.31 1.33 1.34 1.31 1.30 1.36 1.41 1.48 1.49 1.56 1.61 1.66 1.71 1.80 1.87 1.81 1.79 1.77 1.78 1.80 1.79 1.85 2.01 2.40 2.43 2.48 2.48 2.49 2.67 2.69 2.66 2.69 2.71 2.49 2.50 2.29 2.15 2.02 1.76
1.15 1.21 1.29 1.35 1.33 1.34 1.29 1.23 1.31 1.39 1.36 1.48 1.56 1.55 1.59 1.60 1.52 1.61 1.61 1.54 1.59 1.51 1.46 1.45 1.45 1.54 1.58 1.74 1.80 2.10 2.35 2.45 2.53 2.65 2.66 2.70 2.72 2.83 2.56 2.38 2.33 2.25 2.08
0.94 1.02 1.23 1.38 1.40 1.36 1.26 1.26 1.34 1.41 1.47 1.55 1.58 1.56 1.53 1.39 1.55 1.60 1.55 1.46 1.44 1.39 1.32 1.28 1.24 1.30 1.37 1.38 1.36 1.53 1.80 2.08 2.37 2.60 2.65 2.69 2.77 2.85 2.84 2.66 2.52 2.35 2.23
0.89 0.94 1.04 1.17 1.24 1.19 1.12 1.14 1.20 1.30 1.44 1.51 1.58 1.67 1.67 1.69 1.70 1.60 1.51 1.36 1.33 1.30 1.28 1.30 1.11 1.06 1.18 1.13 1.24 1.28 1.34 1.51 1.68 2.06 2.32 2.37 2.52 2.63 2.82 2.74 2.68 2.60 2.45
1.02 1.07 1.05 1.11 1.20 1.23 1.19 1.19 1.31 1.39 1.44 1.50 1.55 1.63 1.70 1.64 1.67 1.52 1.40 1.21 1.22 1.29 1.28 1.29 1.25 1.22 1.23 1.26 1.31 1.25 1.17 1.21 1.30 1.38 1.48 1.67 1.92 2.27 2.54 2.67 2.79 2.81 2.79
1.09 1.15 1.18 1.23 1.30 1.34 1.33 1.42 1.53 1.62 1.54 1.53 1.61 1.68 1.73 1.76 1.72 1.48 1.34 1.19 1.23 1.29 1.24 1.25 1.31 1.24 1.27 1.19 1.21 1.23 1.19 1.15 1.17 1.25 1.20 1.32 1.46 1.68 1.98 2.18 2.36 2.57 2.82
1.22 1.22 1.29 1.40 1.48 1.53 1.69 1.91 1.99 1.99 1.89 1.81 1.69 1.69 1.69 1.74 1.74 1.50 1.40 1.27 1.36 1.45 1.47 1.45 1.43 1.31 1.25 1.19 1.12 1.18 1.16 1.13 1.19 1.19 1.13 1.10 1.12 1.24 1.47 1.62 1.79 2.06 2.31
1.54 1.54 1.54 1.65 1.76 1.84 2.07 2.27 2.30 2.27 2.35 2.26 2.07 1.97 1.93 1.90 1.86 1.68 1.67 1.57 1.67 1.77 1.70 1.59 1.48 1.37 1.17 1.09 1.05 1.04 1.06 1.12 1.22 1.28 1.26 1.21 1.18 1.16 1.22 1.36 1.56 1.68 1.81
1.62 1.69 1.75 1.92 1.87 1.93 2.20 2.27 2.37 2.52 2.53 2.41 2.40 2.31 2.21 2.18 1.99 1.83 1.74 1.65 1.60 1.64 1.66 1.54 1.42 1.29 1.07 0.97 0.91 0.90 0.92 0.89 0.92 1.03 1.10 1.13 1.14 1.08 1.10 1.24 1.45 1.63 1.63
1.78 1.86 1.99 2.16 2.28 2.33 2.49 2.59 2.58 2.59 2.59 2.55 2.56 2.50 2.42 2.37 2.18 1.86 1.69 1.61 1.51 1.43 1.43 1.42 1.32 1.19 1.05 0.92 0.91 0.88 0.81 0.79 0.88 0.95 0.99 1.07 1.10 1.07 1.08 1.21 1.37 1.57 1.60
1.90 1.94 2.08 2.23 2.30 2.39 2.56 2.61 2.64 2.64 2.65 2.70 2.70 2.56 2.46 2.37 2.21 1.97 1.73 1.57 1.46 1.33 1.29 1.34 1.29 1.17 1.03 0.99 0.99 0.91 0.83 0.90 1.00 0.99 1.00 1.08 1.19 1.22 1.21 1.21 1.34 1.45 1.55
2.00 2.07 2.21 2.35 2.47 2.55 2.47 2.52 2.59 2.62 2.56 2.47 2.46 2.43 2.44 2.35 2.22 2.03 1.82 1.66 1.57 1.51 1.42 1.39 1.37 1.27 1.18 1.14 1.16 1.17 1.16 1.14 1.08 1.08 1.14 1.20 1.28 1.34 1.33 1.35 1.39 1.43 1.40
2.11 2.15 2.24 2.32 2.46 2.48 2.45 2.35 2.27 2.18 2.16 2.06 2.08 2.11 2.11 2.09 1.98 1.75 1.62 1.55 1.53 1.58 1.49 1.46 1.53 1.54 1.48 1.40 1.37 1.37 1.34 1.28 1.25 1.28 1.32 1.32 1.32 1.32 1.30 1.38 1.48 1.49 1.45
2.17 2.19 2.21 2.20 2.28 2.38 2.40 2.33 2.22 2.10 1.99 1.87 1.83 1.76 1.68 1.69 1.66 1.61 1.61 1.60 1.56 1.50 1.42 1.49 1.61 1.67 1.69 1.67 1.59 1.48 1.43 1.36 1.30 1.30 1.29 1.31 1.30 1.34 1.38 1.41 1.49 1.53 1.51
2.10 2.14 2.09 2.07 2.15 2.28 2.30 2.31 2.30 2.21 2.13 2.01 1.90 1.80 1.62 1.50 1.48 1.53 1.59 1.57 1.50 1.43 1.44 1.59 1.69 1.72 1.78 1.77 1.66 1.59 1.51 1.43 1.37 1.38 1.41 1.46 1.46 1.46 1.46 1.42 1.43 1.46 1.51
2.04 2.04 2.06 2.08 2.12 2.18 2.24 2.29 2.30 2.21 2.16 2.04 1.84 1.68 1.59 1.48 1.43 1.46 1.43 1.37 1.45 1.53 1.57 1.70 1.76 1.75 1.67 1.62 1.58 1.56 1.49 1.44 1.42 1.43 1.43 1.42 1.41 1.44 1.47 1.49 1.50 1.58 1.55
1.89 2.02 2.07 2.01 2.00 2.06 2.17 2.26 2.25 2.23 2.22 2.17 2.01 1.73 1.54 1.40 1.32 1.37 1.32 1.31 1.37 1.41 1.44 1.53 1.64 1.69 1.67 1.61 1.55 1.48 1.42 1.39 1.37 1.37 1.36 1.36 1.41 1.42 1.38 1.43 1.46 1.43 1.42
1.83 1.83 1.94 1.92 1.89 1.91 1.97 2.01 2.06 2.02 1.94 1.91 1.87 1.73 1.59 1.43 1.42 1.39 1.37 1.37 1.35 1.32 1.38 1.49 1.54 1.52 1.47 1.43 1.43 1.39 1.37 1.38 1.35 1.34 1.37 1.39 1.41 1.39 1.31 1.28 1.29 1.30 1.30
1.93 1.90 1.79 1.77 1.79 1.83 1.85 1.84 1.84 1.79 1.72 1.68 1.63 1.55 1.50 1.39 1.40 1.39 1.37 1.35 1.29 1.24 1.23 1.26 1.30 1.33 1.30 1.27 1.30 1.33 1.32 1.30 1.31 1.29 1.28 1.29 1.31 1.28 1.25 1.25 1.27 1.31 1.38
1.88 1.83 1.71 1.60 1.54 1.62 1.62 1.61 1.61 1.57 1.54 1.51 1.47 1.37 1.30 1.31 1.28 1.24 1.19 1.15 1.12 1.11 1.12 1.16 1.18 1.18 1.15 1.11 1.12 1.16 1.17 1.14 1.16 1.20 1.23 1.25 1.24 1.20 1.20 1.23 1.23 1.29 1.35
1.73 1.71 1.62 1.49 1.36 1.32 1.41 1.50 1.51 1.48 1.48 1.39 1.28 1.20 1.17 1.17 1.12 1.01 0.96 0.94 0.93 0.90 0.91 0.95 0.93 0.89 0.91 0.95 0.97 0.97 0.96 0.94 0.93 0.98 1.01 1.07 1.12 1.09 1.10 1.11 1.09 1.14 1.27
1.49 1.48 1.47 1.43 1.28 1.18 1.27 1.36 1.36 1.30 1.25 1.17 1.07 1.05 1.02 0.98 0.95 0.91 0.86 0.83 0.81 0.80 0.74 0.74 0.77 0.76 0.77 0.78 0.78 0.79 0.76 0.72 0.69 0.72 0.77 0.85 0.94 0.99 1.01 1.04 1.09 1.19 1.28
1.30 1.30 1.28 1.27 1.18 1.10 1.13 1.21 1.20 1.14 1.11 1.02 0.91 0.90 0.91 0.90 0.90 0.89 0.84 0.79 0.76 0.71 0.66 0.66 0.69 0.69 0.67 0.67 0.66 0.62 0.59 0.56 0.57 0.61 0.62 0.69 0.83 0.94 0.97 1.01 1.02 1.08 1.15

GEFSGL_prec_meanprecacc_270.txt.gz
Total_Precipitation_Accumulation
1.37 1.43 1.49 1.49 1.51 1.49 1.45 1.38 1.44 1.50 1.53 1.53 1.57 1.66 1.71 1.75 1.87 2.01 2.00 2.12 2.11 2.09 2.09 2.22 2.35 2.55 2.49 2.34 2.48 2.62 2.78 2.99 2.66 2.39 2.26 2.04 2.06 1.95 1.86 1.79 1.64 1.62 1.47
1.34 1.46 1.65 1.62 1.61 1.58 1.44 1.37 1.43 1.44 1.46 1.49 1.58 1.65 1.63 1.72 1.90 2.00 1.98 2.13 2.15 2.08 2.12 2.27 2.25 2.33 2.40 2.31 2.31 2.32 2.53 2.77 2.68 2.49 2.52 2.43 2.28 2.19 2.16 2.05 1.71 1.56 1.53
1.43 1.49 1.63 1.63 1.60 1.50 1.40 1.37 1.38 1.39 1.44 1.48 1.48 1.51 1.56 1.67 1.82 1.88 1.99 2.08 2.16 2.18 2.15 2.07 1.99 2.13 2.26 2.44 2.46 2.38 2.41 2.55 2.73 2.61 2.56 2.65 2.42 2.21 2.32 2.18 1.98 1.96 1.55
1.23 1.29 1.38 1.33 1.31 1.33 1.34 1.32 1.31 1.37 1.42 1.49 1.51 1.59 1.63 1.69 1.75 1.84 1.91 1.85 1.85 1.84 1.83 1.82 1.81 1.88 2.05 2.46 2.49 2.53 2.53 2.54 2.71 2.73 2.70 2.73 2.76 2.53 2.54 2.32 2.18 2.05 1.79
1.16 1.21 1.30 1.35 1.34 1.35 1.30 1.24 1.32 1.39 1.36 1.49 1.58 1.58 1.62 1.65 1.57 1.65 1.63 1.56 1.63 1.55 1.48 1.47 1.47 1.57 1.62 1.79 1.85 2.16 2.41 2.49 2.56 2.68 2.69 2.74 2.76 2.87 2.61 2.44 2.37 2.28 2.12
0.94 1.03 1.24 1.38 1.40 1.37 1.27 1.27 1.34 1.41 1.48 1.56 1.60 1.59 1.58 1.44 1.58 1.62 1.56 1.48 1.46 1.42 1.36 1.32 1.27 1.32 1.41 1.42 1.41 1.58 1.85 2.12 2.41 2.63 2.69 2.73 2.81 2.89 2.88 2.72 2.59 2.41 2.29
0.90 0.98 1.06 1.18 1.25 1.20 1.13 1.15 1.22 1.32 1.46 1.53 1.61 1.71 1.71 1.72 1.72 1.62 1.53 1.39 1.36 1.34 1.30 1.32 1.14 1.09 1.21 1.15 1.28 1.32 1.39 1.57 1.74 2.13 2.39 2.44 2.58 2.68 2.88 2.79 2.72 2.64 2.51
1.05 1.10 1.08 1.13 1.23 1.26 1.21 1.22 1.33 1.42 1.46 1.53 1.58 1.66 1.72 1.67 1.69 1.55 1.43 1.24 1.24 1.30 1.29 1.30 1.27 1.24 1.25 1.28 1.34 1.28 1.21 1.26 1.35 1.42 1.51 1.70 1.95 2.29 2.59 2.73 2.84 2.86 2.84
1.12 1.19 1.22 1.26 1.35 1.39 1.39 1.46 1.57 1.65 1.57 1.56 1.64 1.71 1.76 1.78 1.75 1.51 1.38 1.23 1.26 1.32 1.26 1.27 1.33 1.26 1.29 1.22 1.23 1.25 1.21 1.16 1.19 1.26 1.22 1.34 1.49 1.71 2.01 2.22 2.41 2.63 2.87
1.25 1.25 1.33 1.45 1.53 1.59 1.75 1.97 2.05 2.05 1.94 1.85 1.73 1.72 1.71 1.76 1.76 1.53 1.43 1.30 1.38 1.46 1.49 1.47 1.44 1.33 1.27 1.20 1.13 1.18 1.17 1.13 1.20 1.19 1.14 1.12 1.14 1.27 1.50 1.64 1.82 2.09 2.35
1.59 1.59 1.59 1.71 1.83 1.91 2.13 2.32 2.36 2.33 2.41 2.31 2.11 1.99 1.95 1.92 1.87 1.70 1.69 1.59 1.69 1.79 1.71 1.60 1.49 1.39 1.18 1.10 1.06 1.05 1.08 1.12 1.22 1.29 1.27 1.22 1.20 1.18 1.24 1.38 1.58 1.70 1.84
1.68 1.74 1.81 1.98 1.94 2.01 2.27 2.34 2.44 2.59 2.61 2.48 2.45 2.34 2.23 2.20 2.00 1.84 1.75 1.67 1.62 1.66 1.67 1.55 1.44 1.32 1.10 1.00 0.95 0.93 0.95 0.92 0.94 1.05 1.11 1.15 1.16 1.10 1.12 1.26 1.47 1.65 1.65
1.85 1.91 2.04 2.20 2.33 2.39 2.55 2.66 2.64 2.64 2.64 2.60 2.61 2.52 2.44 2.38 2.19 1.87 1.69 1.61 1.52 1.44 1.46 1.45 1.37 1.25 1.11 0.97 0.97 0.94 0.86 0.82 0.90 0.96 0.99 1.07 1.11 1.09 1.11 1.23 1.39 1.58 1.61
1.97 2.01 2.15 2.29 2.36 2.44 2.60 2.66 2.69 2.67 2.68 2.73 2.72 2.59 2.48 2.38 2.22 1.98 1.74 1.59 1.47 1.35 1.33 1.39 1.34 1.21 1.07 1.02 1.02 0.93 0.85 0.92 1.02 1.00 1.01 1.08 1.20 1.24 1.25 1.25 1.37 1.48 1.58
2.06 2.12 2.25 2.40 2.53 2.61 2.52 2.56 2.62 2.65 2.58 2.49 2.48 2.46 2.45 2.36 2.24 2.06 1.85 1.70 1.60 1.53 1.44 1.40 1.39 1.29 1.19 1.15 1.18 1.17 1.17 1.14 1.09 1.09 1.14 1.20 1.29 1.35 1.36 1.38 1.44 1.48 1.45
2.15 2.18 2.28 2.36 2.50 2.51 2.49 2.39 2.31 2.22 2.20 2.09 2.11 2.14 2.13 2.11 2.02 1.81 1.68 1.60 1.58 1.62 1.52 1.49 1.56 1.55 1.49 1.42 1.38 1.37 1.35 1.30 1.27 1.30 1.34 1.34 1.33 1.33 1.31 1.40 1.50 1.52 1.48
2.21 2.22 2.25 2.23 2.32 2.42 2.44 2.37 2.25 2.13 2.01 1.90 1.85 1.78 1.70 1.72 1.69 1.65 1.66 1.66 1.62 1.55 1.44 1.51 1.63 1.69 1.71 1.68 1.60 1.49 1.45 1.38 1.33 1.33 1.33 1.34 1.34 1.38 1.41 1.45 1.52 1.57 1.55
2.14 2.18 2.12 2.10 2.18 2.31 2.34 2.35 2.34 2.24 2.15 2.03 1.92 1.81 1.63 1.52 1.51 1.56 1.64 1.61 1.53 1.46 1.46 1.61 1.71 1.74 1.79 1.79 1.67 1.60 1.53 1.45 1.41 1.42 1.45 1.50 1.50 1.51 1.50 1.47 1.48 1.51 1.55
2.08 2.07 2.08 2.11 2.14 2.20 2.26 2.31 2.32 2.23 2.17 2.05 1.84 1.69 1.60 1.49 1.45 1.48 1.45 1.39 1.47 1.55 1.60 1.73 1.78 1.76 1.69 1.63 1.59 1.57 1.49 1.45 1.43 1.44 1.45 1.46 1.46 1.48 1.50 1.52 1.53 1.60 1.57
1.92 2.05 2.10 2.02 2.01 2.07 2.18 2.27 2.27 2.24 2.23 2.17 2.02 1.74 1.55 1.41 1.34 1.39 1.34 1.33 1.39 1.43 1.46 1.55 1.65 1.70 1.68 1.62 1.56 1.48 1.43 1.40 1.38 1.38 1.38 1.38 1.43 1.44 1.40 1.44 1.48 1.45 1.44
1.85 1.86 1.96 1.93 1.90 1.92 1.98 2.02 2.07 2.03 1.95 1.91 1.87 1.74 1.61 1.45 1.45 1.42 1.40 1.39 1.36 1.33 1.38 1.50 1.55 1.53 1.47 1.44 1.44 1.41 1.38 1.39 1.37 1.35 1.39 1.40 1.41 1.40 1.32 1.30 1.31 1.31 1.31
1.96 1.92 1.81 1.79 1.80 1.85 1.86 1.85 1.85 1.80 1.73 1.68 1.64 1.55 1.51 1.40 1.42 1.42 1.39 1.37 1.31 1.25 1.24 1.26 1.31 1.33 1.30 1.27 1.30 1.34 1.33 1.31 1.32 1.30 1.29 1.30 1.32 1.29 1.26 1.26 1.28 1.32 1.39
1.92 1.86 1.74 1.62 1.56 1.64 1.64 1.62 1.62 1.57 1.54 1.52 1.47 1.37 1.31 1.32 1.30 1.25 1.21 1.17 1.14 1.12 1.12 1.16 1.19 1.19 1.15 1.12 1.13 1.17 1.18 1.15 1.17 1.20 1.24 1.26 1.25 1.20 1.21 1.24 1.24 1.30 1.36
1.78 1.74 1.64 1.52 1.38 1.35 1.42 1.51 1.51 1.48 1.48 1.39 1.28 1.20 1.17 1.18 1.13 1.03 0.97 0.95 0.94 0.90 0.91 0.96 0.93 0.90 0.93 0.96 0.98 0.98 0.97 0.95 0.94 0.99 1.01 1.08 1.13 1.10 1.10 1.12 1.09 1.15 1.28
1.52 1.51 1.50 1.46 1.31 1.21 1.28 1.37 1.36 1.31 1.26 1.18 1.07 1.05 1.03 0.99 0.95 0.91 0.87 0.84 0.82 0.81 0.75 0.75 0.78 0.77 0.78 0.79 0.79 0.79 0.77 0.73 0.70 0.73 0.78 0.86 0.95 0.99 1.01 1.04 1.10 1.19 1.29
1.34 1.34 1.33 1.31 1.22 1.12 1.15 1.22 1.22 1.15 1.12 1.03 0.92 0.90 0.92 0.91 0.90 0.89 0.85 0.79 0.77 0.72 0.67 0.67 0.70 0.70 0.68 0.68 0.67 0.62 0.60 0.57 0.58 0.62 0.62 0.70 0.84 0.94 0.97 1.01 1.02 1.08 1.15

GEFSGL_prec_meanprecacc_276.txt.gz
Total_Precipitation_Accumulation
1.38 1.45 1.49 1.50 1.53 1.50 1.46 1.39 1.46 1.52 1.54 1.54 1.59 1.68 1.73 1.76 1.89 2.03 2.03 2.15 2.16 2.14 2.14 2.28 2.43 2.65 2.58 2.40 2.53 2.67 2.85 3.08 2.75 2.48 2.32 2.08 2.08 1.98 1.89 1.82 1.67 1.65 1.50
1.36 1.47 1.66 1.63 1.62 1.58 1.44 1.38 1.44 1.44 1.47 1.50 1.59 1.67 1.64 1.74 1.92 2.02 2.01 2.16 2.22 2.18 2.23 2.34 2.32 2.42 2.47 2.37 2.37 2.39 2.61 2.85 2.75 2.55 2.57 2.46 2.31 2.21 2.18 2.07 1.73 1.58 1.56
1.44 1.50 1.64 1.64 1.60 1.51 1.41 1.37 1.38 1.39 1.45 1.49 1.49 1.52 1.58 1.68 1.84 1.90 2.02 2.13 2.23 2.26 2.21 2.11 2.03 2.17 2.30 2.48 2.51 2.42 2.46 2.59 2.77 2.66 2.60 2.68 2.45 2.24 2.34 2.19 1.99 1.97 1.56
1.24 1.31 1.39 1.33 1.32 1.34 1.35 1.32 1.32 1.38 1.43 1.50 1.52 1.60 1.65 1.71 1.76 1.87 1.97 1.91 1.89 1.87 1.85 1.84 1.83 1.90 2.08 2.49 2.52 2.56 2.57 2.59 2.76 2.78 2.75 2.77 2.80 2.56 2.55 2.33 2.20 2.07 1.81
1.17 1.22 1.31 1.36 1.34 1.36 1.31 1.24 1.33 1.40 1.37 1.50 1.59 1.59 1.64 1.67 1.59 1.69 1.68 1.59 1.65 1.56 1.50 1.49 1.49 1.59 1.64 1.81 1.88 2.19 2.45 2.54 2.61 2.73 2.73 2.77 2.80 2.90 2.63 2.46 2.40 2.31 2.15
0.95 1.04 1.26 1.39 1.41 1.37 1.27 1.27 1.35 1.42 1.48 1.57 1.61 1.60 1.59 1.44 1.59 1.63 1.58 1.50 1.49 1.44 1.38 1.35 1.29 1.35 1.43 1.44 1.44 1.61 1.88 2.16 2.45 2.68 2.74 2.78 2.86 2.94 2.92 2.75 2.63 2.46 2.35
0.91 0.98 1.06 1.19 1.26 1.21 1.14 1.16 1.23 1.32 1.46 1.53 1.62 1.72 1.72 1.73 1.74 1.63 1.54 1.40 1.38 1.36 1.32 1.34 1.16 1.12 1.24 1.17 1.30 1.34 1.40 1.58 1.76 2.15 2.43 2.48 2.62 2.72 2.91 2.82 2.76 2.68 2.55
1.06 1.11 1.10 1.15 1.26 1.29 1.24 1.24 1.36 1.43 1.48 1.54 1.59 1.67 1.74 1.69 1.72 1.56 1.44 1.25 1.25 1.32 1.30 1.31 1.28 1.25 1.26 1.29 1.35 1.29 1.22 1.26 1.36 1.43 1.53 1.72 1.98 2.33 2.63 2.76 2.87 2.89 2.87
1.13 1.21 1.24 1.29 1.37 1.41 1.41 1.49 1.60 1.67 1.58 1.58 1.65 1.72 1.78 1.80 1.77 1.53 1.39 1.23 1.26 1.32 1.26 1.27 1.34 1.26 1.30 1.23 1.23 1.26 1.21 1.17 1.19 1.27 1.23 1.35 1.50 1.72 2.02 2.24 2.43 2.66 2.91
1.26 1.26 1.34 1.47 1.55 1.60 1.76 1.98 2.07 2.08 1.97 1.87 1.74 1.73 1.72 1.77 1.77 1.54 1.44 1.30 1.39 1.47 1.50 1.47 1.45 1.33 1.28 1.21 1.14 1.19 1.17 1.14 1.20 1.20 1.15 1.13 1.14 1.27 1.51 1.65 1.83 2.12 2.40
1.62 1.61 1.61 1.72 1.85 1.92 2.15 2.34 2.38 2.35 2.43 2.33 2.13 2.01 1.96 1.93 1.89 1.72 1.71 1.60 1.70 1.80 1.72 1.60 1.50 1.39 1.18 1.11 1.07 1.06 1.09 1.14 1.23 1.30 1.28 1.23 1.21 1.19 1.25 1.39 1.60 1.72 1.86
1.73 1.78 1.84 2.00 1.96 2.02 2.29 2.36 2.46 2.60 2.62 2.49 2.47 2.37 2.26 2.22 2.03 1.86 1.78 1.69 1.63 1.67 1.68 1.56 1.45 1.34 1.11 1.01 0.95 0.94 0.96 0.93 0.96 1.08 1.14 1.18 1.18 1.12 1.15 1.29 1.50 1.68 1.68
1.89 1.95 2.07 2.22 2.34 2.41 2.57 2.68 2.66 2.66 2.66 2.63 2.64 2.56 2.46 2.40 2.22 1.90 1.72 1.65 1.55 1.46 1.48 1.47 1.39 1.27 1.12 0.99 0.98 0.95 0.86 0.84 0.91 0.98 1.02 1.10 1.14 1.12 1.14 1.26 1.41 1.60 1.63
1.99 2.03 2.17 2.32 2.39 2.47 2.64 2.69 2.72 2.70 2.71 2.76 2.75 2.62 2.51 2.42 2.25 2.01 1.77 1.61 1.51 1.37 1.35 1.41 1.36 1.23 1.08 1.03 1.03 0.94 0.86 0.93 1.02 1.01 1.02 1.09 1.21 1.25 1.26 1.26 1.38 1.49 1.59
2.11 2.17 2.29 2.44 2.58 2.67 2.59 2.64 2.70 2.71 2.63 2.53 2.52 2.49 2.49 2.39 2.28 2.09 1.87 1.71 1.62 1.55 1.46 1.42 1.41 1.30 1.21 1.17 1.19 1.19 1.18 1.15 1.10 1.10 1.15 1.21 1.29 1.36 1.36 1.39 1.45 1.49 1.46
2.19 2.23 2.32 2.40 2.55 2.56 2.54 2.44 2.36 2.28 2.25 2.14 2.17 2.20 2.19 2.15 2.06 1.84 1.70 1.62 1.60 1.64 1.54 1.50 1.58 1.58 1.52 1.44 1.41 1.41 1.38 1.31 1.28 1.31 1.34 1.35 1.34 1.33 1.32 1.40 1.51 1.53 1.49
2.23 2.26 2.28 2.27 2.35 2.45 2.47 2.40 2.28 2.17 2.07 1.95 1.90 1.83 1.76 1.78 1.74 1.69 1.68 1.68 1.64 1.58 1.48 1.54 1.66 1.71 1.73 1.71 1.64 1.53 1.47 1.39 1.34 1.33 1.33 1.35 1.34 1.38 1.42 1.46 1.53 1.58 1.56
2.17 2.20 2.15 2.13 2.21 2.34 2.37 2.39 2.37 2.27 2.18 2.07 1.96 1.86 1.68 1.57 1.55 1.60 1.67 1.64 1.56 1.48 1.48 1.63 1.73 1.76 1.83 1.82 1.70 1.62 1.55 1.47 1.41 1.42 1.45 1.50 1.51 1.52 1.51 1.47 1.49 1.52 1.56
2.11 2.09 2.11 2.14 2.18 2.24 2.30 2.36 2.36 2.26 2.20 2.07 1.87 1.72 1.64 1.52 1.47 1.51 1.48 1.41 1.48 1.57 1.62 1.74 1.80 1.78 1.71 1.65 1.61 1.58 1.52 1.48 1.45 1.46 1.46 1.47 1.47 1.49 1.51 1.53 1.54 1.61 1.58
1.95 2.08 2.13 2.05 2.04 2.10 2.21 2.31 2.30 2.27 2.25 2.19 2.03 1.75 1.56 1.43 1.36 1.41 1.36 1.34 1.40 1.44 1.48 1.56 1.66 1.70 1.68 1.62 1.57 1.49 1.44 1.41 1.38 1.39 1.39 1.39 1.44 1.44 1.41 1.45 1.49 1.46 1.45
1.89 1.90 2.01 1.97 1.93 1.95 2.01 2.05 2.10 2.06 1.97 1.93 1.89 1.75 1.62 1.46 1.46 1.43 1.41 1.40 1.37 1.34 1.39 1.50 1.55 1.53 1.48 1.44 1.45 1.42 1.39 1.40 1.38 1.36 1.40 1.41 1.43 1.41 1.33 1.31 1.31 1.32 1.32
2.00 1.96 1.86 1.84 1.84 1.89 1.90 1.88 1.87 1.82 1.74 1.69 1.65 1.56 1.51 1.40 1.42 1.43 1.40 1.38 1.32 1.25 1.25 1.27 1.31 1.33 1.30 1.28 1.31 1.34 1.34 1.32 1.33 1.31 1.30 1.30 1.32 1.30 1.27 1.27 1.29 1.34 1.41
1.97 1.91 1.79 1.66 1.59 1.67 1.66 1.64 1.63 1.58 1.55 1.53 1.48 1.38 1.31 1.33 1.30 1.26 1.22 1.18 1.14 1.12 1.13 1.17 1.20 1.19 1.16 1.13 1.13 1.18 1.19 1.16 1.17 1.21 1.25 1.27 1.26 1.21 1.22 1.25 1.25 1.31 1.37
1.82 1.78 1.68 1.55 1.41 1.37 1.44 1.53 1.53 1.51 1.50 1.41 1.29 1.21 1.18 1.18 1.13 1.03 0.98 0.96 0.95 0.91 0.92 0.96 0.94 0.91 0.93 0.97 0.99 0.99 0.98 0.95 0.95 1.00 1.02 1.09 1.13 1.11 1.11 1.12 1.10 1.15 1.29
1.58 1.55 1.54 1.49 1.34 1.23 1.31 1.40 1.39 1.33 1.28 1.20 1.09 1.07 1.04 0.99 0.96 0.92 0.88 0.85 0.83 0.81 0.75 0.75 0.78 0.77 0.79 0.80 0.81 0.81 0.79 0.75 0.71 0.74 0.79 0.87 0.96 1.00 1.01 1.05 1.10 1.19 1.29
1.40 1.40 1.38 1.36 1.25 1.15 1.18 1.26 1.25 1.18 1.15 1.05 0.94 0.92 0.93 0.92 0.91 0.90 0.86 0.80 0.77 0.72 0.67 0.68 0.71 0.70 0.69 0.69 0.67 0.63 0.61 0.58 0.59 0.63 0.63 0.71 0.84 0.95 0.97 1.02 1.02 1.08 1.16

GEFSGL_prec_meanprecacc_282.txt.gz
Total_Precipitation_Accumulation
1.38 1.45 1.51 1.51 1.54 1.51 1.48 1.40 1.47 1.54 1.57 1.57 1.62 1.71 1.76 1.79 1.91 2.06 2.05 2.18 2.19 2.19 2.19 2.32 2.48 2.71 2.65 2.46 2.59 2.74 2.94 3.17 2.84 2.59 2.43 2.17 2.15 2.04 1.93 1.85 1.70 1.66 1.52
1.36 1.48 1.67 1.64 1.63 1.60 1.45 1.39 1.45 1.46 1.49 1.52 1.61 1.69 1.67 1.76 1.95 2.04 2.03 2.18 2.24 2.21 2.28 2.39 2.37 2.47 2.52 2.42 2.42 2.44 2.67 2.92 2.83 2.69 2.72 2.58 2.39 2.28 2.23 2.10 1.75 1.60 1.58
1.45 1.52 1.65 1.66 1.62 1.52 1.42 1.38 1.39 1.40 1.46 1.50 1.50 1.54 1.59 1.70 1.85 1.92 2.04 2.15 2.25 2.28 2.24 2.14 2.06 2.20 2.33 2.52 2.53 2.46 2.50 2.64 2.85 2.76 2.70 2.76 2.52 2.30 2.39 2.23 2.01 1.99 1.57
1.25 1.31 1.41 1.37 1.37 1.37 1.37 1.34 1.33 1.39 1.45 1.52 1.53 1.61 1.66 1.72 1.77 1.88 1.99 1.93 1.90 1.89 1.86 1.85 1.84 1.92 2.10 2.51 2.55 2.59 2.60 2.63 2.83 2.85 2.82 2.83 2.86 2.62 2.60 2.38 2.25 2.12 1.84
1.17 1.23 1.32 1.37 1.37 1.38 1.32 1.25 1.34 1.41 1.39 1.52 1.61 1.61 1.66 1.68 1.60 1.70 1.69 1.60 1.67 1.59 1.52 1.51 1.51 1.62 1.67 1.85 1.90 2.23 2.50 2.59 2.68 2.80 2.81 2.85 2.86 2.97 2.68 2.51 2.46 2.38 2.21
0.95 1.04 1.27 1.40 1.42 1.38 1.29 1.28 1.36 1.43 1.50 1.59 1.64 1.63 1.61 1.46 1.61 1.64 1.58 1.51 1.50 1.47 1.42 1.38 1.31 1.38 1.46 1.48 1.47 1.64 1.91 2.20 2.51 2.75 2.81 2.85 2.93 2.99 2.98 2.80 2.69 2.52 2.40
0.91 0.99 1.07 1.20 1.27 1.22 1.16 1.20 1.26 1.36 1.49 1.56 1.64 1.74 1.73 1.75 1.75 1.64 1.54 1.41 1.39 1.37 1.35 1.37 1.18 1.13 1.26 1.19 1.32 1.35 1.41 1.59 1.77 2.17 2.46 2.51 2.66 2.77 2.97 2.87 2.81 2.73 2.61
1.06 1.12 1.11 1.17 1.28 1.31 1.28 1.31 1.41 1.47 1.51 1.57 1.61 1.68 1.76 1.71 1.74 1.58 1.44 1.25 1.26 1.32 1.31 1.32 1.30 1.27 1.27 1.30 1.36 1.29 1.22 1.27 1.37 1.43 1.53 1.74 2.00 2.35 2.66 2.79 2.91 2.92 2.90
1.13 1.22 1.27 1.32 1.40 1.44 1.45 1.53 1.63 1.71 1.62 1.61 1.68 1.75 1.81 1.83 1.80 1.55 1.40 1.23 1.26 1.32 1.27 1.28 1.34 1.27 1.31 1.24 1.24 1.27 1.23 1.19 1.20 1.28 1.24 1.36 1.50 1.72 2.04 2.26 2.45 2.68 2.93
1.29 1.31 1.39 1.51 1.58 1.63 1.80 2.02 2.10 2.11 2.00 1.91 1.79 1.77 1.76 1.80 1.82 1.56 1.44 1.31 1.39 1.48 1.51 1.48 1.46 1.35 1.29 1.22 1.14 1.20 1.19 1.16 1.21 1.20 1.16 1.13 1.15 1.28 1.52 1.67 1.85 2.14 2.42
1.66 1.67 1.67 1.77 1.89 1.96 2.19 2.37 2.41 2.39 2.47 2.38 2.18 2.05 1.99 1.96 1.92 1.73 1.71 1.61 1.71 1.82 1.73 1.61 1.51 1.42 1.20 1.12 1.08 1.07 1.10 1.16 1.25 1.31 1.29 1.24 1.21 1.19 1.25 1.40 1.61 1.74 1.89
1.77 1.83 1.90 2.06 2.00 2.07 2.34 2.41 2.51 2.65 2.67 2.54 2.52 2.41 2.29 2.25 2.04 1.87 1.79 1.70 1.65 1.69 1.70 1.58 1.47 1.36 1.13 1.02 0.97 0.95 0.97 0.94 0.97 1.08 1.15 1.18 1.19 1.13 1.15 1.30 1.51 1.69 1.70
1.93 2.01 2.14 2.31 2.44 2.49 2.65 2.75 2.73 2.71 2.70 2.66 2.68 2.59 2.49 2.42 2.24 1.92 1.74 1.67 1.57 1.49 1.50 1.51 1.41 1.29 1.14 1.00 1.00 0.97 0.88 0.85 0.92 0.98 1.03 1.11 1.15 1.12 1.14 1.26 1.42 1.61 1.64
2.03 2.07 2.21 2.36 2.43 2.51 2.67 2.72 2.75 2.73 2.73 2.78 2.78 2.65 2.53 2.43 2.27 2.03 1.78 1.63 1.53 1.40 1.37 1.43 1.37 1.24 1.10 1.05 1.04 0.96 0.87 0.94 1.03 1.01 1.03 1.10 1.22 1.26 1.26 1.26 1.39 1.50 1.60
2.14 2.21 2.33 2.48 2.62 2.70 2.62 2.66 2.72 2.73 2.66 2.57 2.56 2.53 2.52 2.42 2.31 2.12 1.89 1.73 1.63 1.56 1.47 1.43 1.42 1.31 1.22 1.18 1.20 1.20 1.19 1.16 1.11 1.11 1.16 1.22 1.30 1.37 1.37 1.39 1.46 1.50 1.46
2.21 2.26 2.36 2.45 2.60 2.61 2.58 2.47 2.40 2.32 2.29 2.18 2.22 2.25 2.22 2.18 2.08 1.86 1.72 1.64 1.61 1.66 1.55 1.51 1.58 1.59 1.52 1.45 1.43 1.42 1.39 1.32 1.29 1.32 1.36 1.36 1.35 1.35 1.33 1.41 1.52 1.54 1.49
2.26 2.29 2.31 2.30 2.40 2.51 2.51 2.44 2.31 2.21 2.10 1.98 1.93 1.85 1.78 1.80 1.76 1.72 1.71 1.70 1.67 1.61 1.49 1.55 1.67 1.72 1.74 1.72 1.65 1.54 1.49 1.41 1.36 1.35 1.34 1.36 1.35 1.40 1.44 1.47 1.54 1.59 1.56
2.20 2.24 2.18 2.16 2.24 2.38 2.41 2.43 2.40 2.31 2.21 2.09 1.99 1.89 1.72 1.59 1.58 1.63 1.70 1.67 1.59 1.53 1.52 1.67 1.76 1.79 1.85 1.84 1.72 1.64 1.56 1.48 1.43 1.44 1.47 1.52 1.53 1.53 1.52 1.48 1.50 1.53 1.57
2.14 2.12 2.14 2.17 2.21 2.27 2.33 2.38 2.38 2.29 2.23 2.10 1.89 1.74 1.67 1.55 1.50 1.53 1.50 1.44 1.52 1.61 1.66 1.79 1.84 1.83 1.75 1.68 1.64 1.61 1.54 1.49 1.47 1.49 1.50 1.51 1.50 1.52 1.54 1.55 1.56 1.63 1.60
1.99 2.13 2.17 2.09 2.08 2.14 2.25 2.34 2.34 2.32 2.29 2.23 2.06 1.77 1.58 1.45 1.37 1.43 1.37 1.35 1.42 1.46 1.50 1.59 1.69 1.73 1.71 1.65 1.59 1.51 1.46 1.43 1.40 1.41 1.40 1.41 1.46 1.47 1.43 1.48 1.51 1.48 1.47
1.93 1.94 2.06 2.02 1.96 1.99 2.06 2.10 2.16 2.13 2.04 1.99 1.93 1.79 1.65 1.49 1.48 1.45 1.42 1.41 1.38 1.35 1.40 1.52 1.57 1.55 1.50 1.46 1.47 1.43 1.41 1.42 1.39 1.38 1.41 1.42 1.44 1.42 1.34 1.32 1.34 1.34 1.34
2.04 2.00 1.91 1.90 1.92 1.97 1.97 1.95 1.93 1.88 1.80 1.75 1.68 1.59 1.54 1.43 1.44 1.44 1.41 1.39 1.33 1.26 1.25 1.28 1.32 1.34 1.31 1.28 1.31 1.35 1.35 1.32 1.33 1.32 1.31 1.31 1.33 1.31 1.28 1.29 1.31 1.35 1.43
2.00 1.95 1.84 1.73 1.66 1.76 1.76 1.73 1.70 1.63 1.59 1.57 1.52 1.41 1.34 1.35 1.32 1.27 1.23 1.19 1.16 1.14 1.14 1.18 1.20 1.20 1.16 1.13 1.14 1.18 1.19 1.16 1.17 1.22 1.26 1.27 1.27 1.23 1.23 1.26 1.26 1.33 1.38
1.85 1.82 1.72 1.60 1.47 1.43 1.51 1.61 1.62 1.57 1.54 1.44 1.32 1.25 1.23 1.23 1.17 1.06 1.00 0.98 0.97 0.93 0.94 0.98 0.95 0.92 0.94 0.97 0.99 0.99 0.98 0.96 0.95 1.00 1.03 1.10 1.14 1.12 1.12 1.14 1.11 1.17 1.31
1.60 1.58 1.57 1.54 1.39 1.28 1.36 1.45 1.43 1.38 1.33 1.25 1.13 1.11 1.07 1.03 1.01 0.96 0.92 0.88 0.85 0.83 0.77 0.77 0.80 0.78 0.80 0.80 0.81 0.81 0.80 0.76 0.72 0.75 0.80 0.88 0.97 1.01 1.03 1.06 1.11 1.21 1.31
1.43 1.43 1.42 1.40 1.30 1.19 1.22 1.30 1.30 1.23 1.20 1.11 1.00 0.98 0.98 0.96 0.95 0.95 0.90 0.84 0.80 0.74 0.69 0.69 0.72 0.71 0.69 0.69 0.68 0.65 0.63 0.60 0.60 0.64 0.64 0.72 0.86 0.96 0.99 1.03 1.04 1.10 1.17